Location: Pitton
(51.0667°N, 1.7000°W)
Time: 16:05:23
(UTC+00:00)

MOS 1 Rocket - Pass Details

Date: 17 September 2019
Orbit: 614 x 831 km, 97.4° (Epoch: 21 October)

Event Time Altitude Azimuth Distance (km) Brightness Sun altitude
Rises 21:59:58 0° 12° (NNE) 3,332 7.3 -30.9°
Reaches altitude 10° 22:02:22 10° 12° (NNE) 2,373 6.5 -31.1°
Enters shadow 22:05:49 42° 11° (N) 1,105 4.5 -31.4°
